SCP
-0 0 -0 -0 -0 -0 -0 -0 -0 -0 -0 -0 -0 0 0 0 0 0 0 0 0 0 0 0 0 0 0 0 0 0 0 0 0 0 0 0 0 0 0 0 0 0 0
-0 0 -0 -0 -0 -0 -0 -0 -0 -0 -0 0 0 0 0 0 0 0 0 0 0 0 0 0 0 0 0 0 0 0 0 0 0 0 0 0 0 0 0 0 0 0 0
-0 0 -0 -0 -0 -0 -0 -0 -0 -0 0 0 0 0 0 0 0 0 0 0 0 0 0 0 0 0 0 0 0 0 0 0 0 0 0 0 0 0 0 0 0 0 0
0 0 -0 -0 -0 -0 -0 -0 0 0 0 0 0 0 0 0 0 0 0 0 0 0 0 0 0 0 0 0 0 0 0 0 0 0 0 0 0 0 0 0 0 0 0
-0 -0 -0 -0 -0 -0 -0 0 0 0 0 0 0 0 0 0 0 0 0 0 0 0 0 0 0 0 0 0 0 0 0 0 0 0 0 0 0 0 0 0 0 0 0
0 -0 -0 -0 -0 -0 0 0 0 0 0 0 0 0 0 0 0 0 0 0 0 0 0 0 0 0 0 0 0 0 0 0 0 0 0 0 0 0 0 0 0 0 0
-0 -0 0 -0 0 0 0 0 0 0 0 0 0 0 0 0 0 0 0 0 0 0 0 0 0 0 0 0 0 0 0 0 0 0 0 0 0 0 0 0 0 0 0
-0 0 0 0 0 0 0 0 0 0 0 0 0 0 0 0 0 0 0 0 0 0 0 0 0 0 0 0 0 0 0 0 0 0 0 0 0 0 0 -0 0 0 0
-0 0 0 0 0 0 0 0 0 0 0 0 0 0 0 0 0 0 0 0 0 0 0 0 0 0 0 0 0 0 0 0 0 0 0 0 0 0 -0 -0 0 0 0
0 0 0 0 0 0 0 0 0 0 0 0 0 0 0 0 0 0 0 0 0 0 0 0 0 0 0 0 0 0 0 0 0 0 0 0 0 0 0 0 0 0 0
0 0 0 0 0 0 0 0 0 0 0 0 0 0 0 0 0 0 0 0 0 0 0 0 0 0 0 0 0 0 0 0 0 0 0 0 0 0 0 0 0 0 0
0 0 0 0 0 0 0 0 0 0 0 0 0 0 0 0 0 0 0 0 0 0 0 0 0 0 0 0 0 0 0 0 0 0 0 0 0 0 0 0 0 0 0
0 0 0 0 0 0 0 0 0 0 0 0 0 0 0 0 0 0 0 0 0 0 0 0 0 0 0 0 0 0 0 0 0 0 0 0 0 0 0 0 0 0 0
0 0 0 0 0 0 0 0 0 -0 0 0 0 0 0 0 0 0 0 0 0 0 0 0 0 0 0 0 0 0 0 0 0 0 0 0 0 0 0 0 0 0 0
0 0 0 0 0 0 0 0 0 0 0 0 0 0 0 0 0 0 0 0 0 0 0 0 0 0 0 0 0 0 0 0 0 0 0 0 0 0 0 0 0 0 0
0 0 0 0 0 0 0 0 0 0 0 0 0 0 0 0 0 0 0 0 0 0 0 0 0 0 0 0 0 0 0 0 0 0 0 0 0 0 0 0 0 0 0
0 -0 0 0 0 0 0 0 -0 -0 -0 -0 0 0 0 0 0 0 0 0 0 0 0 0 0 0 0 0 0 0 0 0 0 0 0 0 0 0 0 0 0 0 0
0 0 0 0 0 0 0 0 0 -0 -0 -0 0 0 0 0 0 0 0 0 0 0 0 0 0 0 0 0 0 0 0 0 0 0 0 0 0 0 0 0 0 0 0
0 0 0 0 0 0 0 0 0 0 -0 -0 0 0 0 0 0 0 0 0 0 0 0 0 0 0 0 0 0 0 0 0 0 0 0 0 0 0 0 0 0 0 0
0 0 0 0 0 0 0 0 0 0 0 0 0 0 0 0 0 0 0 0 0 0 0 0 0 0 0 0 0 0 0 0 0 0 0 0 0 0 0 0 0 0 0
0 0 0 0 0 0 0 0 0 0 0 0 0 0 0 0 0 0 0 0 0 0 0 0 0 0 0 0 0 0 0 0 0 0 0 0 0 0 0 0 0 0 0
0 0 0 0 0 0 0 0 0 0 0 0 0 0 0 0 0 0 0 0 0 0 0 0 0 0 0 0 0 0 0 0 0 0 0 0 0 0 0 0 0 0 0
0 0 0 0 0 0 0 0 0 0 0 0 0 0 0 0 0 0 0 0 0 0 0 0 0 0 0 0 0 0 0 0 0 0 0 0 0 0 0 0 0 0 0
0 0 0 0 0 0 0 0 0 0 0 0 0 0 0 0 0 0 0 0 0 0 0 0 0 0 0 -0 -0 0 0 0 0 0 0 0 0 0 0 0 0 0 0
0 0 0 0 0 0 0 0 0 0 0 0 0 0 0 0 0 0 0 0 0 0 0 0 0 0 0 0 0 0 0 0 0 0 0 0 0 0 0 0 0 0 0
0 0 0 0 0 0 0 0 0 0 0 0 0 0 0 0 0 0 0 0 0 0 0 0 0 0 0 0 0 0 0 0 0 0 0 0 0 0 0 0 0 0 0
Wind_Speed_500mb
21 17 19 19 18 20 21 21 19 18 19 21 21 19 16 17 20 21 24 24 23 22 22 21 21 19 19 19 19 19 18 19 18 18 19 18 18 19 17 17 16 16 16
19 18 16 17 16 15 14 14 14 12 10 8 9 13 16 16 18 23 25 26 26 26 25 24 23 20 19 18 18 19 23 22 21 19 19 18 14 13 13 12 12 13 14
17 15 15 13 12 11 10 10 10 10 8 6 5 9 16 20 22 25 27 27 26 24 22 21 19 16 16 15 18 22 21 21 20 17 13 11 10 7 7 8 7 3 1
16 14 12 10 8 7 6 6 6 5 5 5 8 11 14 20 24 26 26 25 25 25 23 21 18 14 13 12 15 16 17 17 16 15 15 15 12 8 8 9 9 6 4
15 11 10 8 7 5 4 5 4 4 3 4 6 9 13 17 21 23 23 23 25 24 22 20 19 17 15 15 15 16 14 12 11 13 14 13 14 13 14 13 11 9 6
11 11 9 8 6 5 5 4 3 4 4 4 5 8 11 14 19 19 18 19 19 19 17 14 14 13 12 13 13 10 7 6 6 8 11 10 11 13 16 18 16 12 9
13 14 11 10 9 8 8 7 6 5 5 5 6 9 11 13 15 16 14 14 13 11 9 9 8 7 6 4 4 4 3 0 3 6 9 10 14 16 20 21 18 14 12
18 17 14 12 10 8 9 7 7 7 6 6 7 9 12 13 14 14 14 13 13 12 12 10 9 8 8 9 7 7 5 3 6 7 10 13 15 17 22 24 20 15 14
22 18 16 13 11 10 9 7 6 4 5 5 6 9 13 15 16 16 16 17 17 18 18 15 10 9 10 11 11 10 10 9 8 12 15 16 18 20 24 26 21 16 15
18 18 16 14 13 11 9 7 7 5 3 3 6 7 10 15 17 19 21 22 21 20 19 18 15 15 17 16 17 14 14 13 12 15 18 17 19 21 23 24 21 15 11
21 16 12 12 11 11 9 8 10 9 10 10 11 12 14 18 20 23 25 26 26 26 28 23 21 21 21 21 23 22 19 16 13 17 18 20 22 21 23 20 16 11 7
21 19 17 15 15 11 12 11 12 11 13 15 16 18 21 23 25 28 30 33 35 34 33 30 32 28 25 27 29 25 24 22 19 20 17 18 20 20 19 17 14 10 9
23 17 20 20 21 17 19 18 19 19 17 16 20 24 27 28 28 30 32 34 37 35 37 39 43 38 29 35 36 32 25 24 22 23 21 18 18 17 15 15 12 9 9
23 26 25 25 23 23 25 26 28 31 33 33 32 31 28 26 30 33 33 33 33 36 37 41 45 44 41 41 40 38 32 33 27 25 23 17 17 14 12 11 10 6 5
29 28 29 28 33 35 28 27 31 40 43 42 38 33 27 21 22 23 25 26 26 29 33 37 35 28 29 36 42 48 41 37 28 26 25 28 23 14 14 8 9 8 2
32 31 30 30 29 34 35 34 35 43 49 50 45 32 30 25 23 22 19 20 23 24 26 29 34 40 40 41 39 42 44 43 44 42 38 33 30 21 15 10 17 10 3
26 32 32 30 29 38 36 32 35 49 56 62 55 32 26 25 27 19 18 20 25 29 30 34 36 34 33 35 43 47 50 50 49 43 36 32 28 23 17 15 16 7 4
15 16 20 24 29 32 32 34 40 50 54 58 44 28 24 26 28 27 24 31 36 38 41 40 38 38 30 32 34 38 43 46 43 38 36 39 31 24 16 16 13 8 4
14 20 24 24 29 28 25 31 42 47 49 45 35 31 27 25 24 29 33 39 41 48 39 32 29 31 31 23 22 25 30 36 39 36 30 32 28 25 22 12 11 9 7
19 20 24 28 33 35 33 38 43 44 45 35 34 32 36 36 37 38 38 41 42 35 32 33 31 28 27 27 25 24 25 29 33 31 32 31 31 26 18 16 8 5 4
20 24 25 26 32 36 46 50 49 50 49 39 34 34 35 38 40 40 37 36 33 29 28 29 27 29 29 27 25 26 17 18 20 22 30 34 34 25 20 10 10 7 2
14 19 21 28 35 44 48 49 50 49 48 44 37 30 27 27 28 30 30 32 27 25 26 25 25 26 29 23 23 16 11 8 18 26 34 38 32 25 14 11 13 8 8
17 21 28 34 44 51 55 48 46 47 45 44 41 37 32 30 31 28 30 33 32 33 34 29 26 25 24 21 22 17 11 9 27 27 35 37 26 22 22 14 12 12 12
21 25 33 44 53 51 43 47 49 46 46 45 43 41 36 31 31 34 32 29 33 28 26 22 22 20 19 18 20 24 18 18 12 21 32 29 28 31 26 18 18 18 18
20 29 41 49 37 38 47 45 40 39 40 41 37 36 32 27 25 28 28 25 28 16 11 12 15 15 14 13 17 18 30 19 22 32 33 29 30 27 22 21 21 21 20
26 39 42 32 33 40 47 42 37 37 41 44 40 38 33 27 27 23 16 13 7 6 11 13 15 12 9 8 12 9 9 13 18 19 18 28 25 22 23 22 21 20 17
Wind_Direction_500mb
105 98 111 119 112 106 101 97 94 96 105 115 123 129 138 144 145 142 138 138 137 131 124 118 118 123 120 110 100 95 90 101 101 98 89 84 77 66 70 73 80 90 96
112 107 103 116 115 113 106 104 106 104 103 95 105 124 141 147 145 143 140 134 128 122 119 116 117 124 120 108 97 103 100 90 88 90 85 75 68 58 72 67 70 87 92
112 104 101 104 108 109 102 101 110 114 106 113 123 134 141 147 151 148 142 136 127 120 116 115 119 128 126 119 103 104 98 86 86 76 48 38 41 60 51 79 69 68 57
112 101 97 97 102 96 89 72 66 71 61 115 137 149 149 150 154 151 145 137 127 115 110 110 115 135 138 128 119 118 109 103 90 67 52 46 50 43 27 5 348 334 300
109 105 99 92 89 87 71 53 40 22 43 104 142 153 157 156 157 155 147 138 127 117 111 110 110 118 132 135 131 131 123 110 85 66 53 60 54 46 21 12 5 339 304
95 93 90 85 85 76 63 64 58 48 77 106 143 157 163 163 161 157 151 145 138 131 119 113 108 115 125 134 135 139 144 129 78 40 34 37 33 18 4 356 345 331 299
93 84 80 74 67 62 50 37 53 72 94 117 147 163 165 169 170 166 164 159 155 157 149 119 108 117 129 147 166 183 180 147 16 9 5 357 350 353 351 350 340 324 297
101 93 85 74 70 39 26 48 69 83 90 122 147 164 177 181 179 179 183 191 203 214 219 206 182 183 194 211 226 247 255 308 350 340 332 330 332 337 344 344 336 316 293
91 80 76 72 58 48 47 48 69 99 126 151 162 183 194 200 198 201 205 214 222 227 234 234 229 216 212 220 225 238 265 276 333 333 320 320 321 330 339 341 333 319 298
78 81 76 75 75 54 28 20 356 10 346 236 208 211 222 233 231 230 228 230 237 243 249 241 246 241 224 212 230 240 248 253 307 316 313 307 310 324 337 339 330 334 327
65 61 58 60 54 50 31 30 23 16 2 337 318 305 285 274 267 265 262 262 265 263 261 249 259 259 256 241 231 233 242 237 276 287 295 299 308 319 330 339 334 341 7
61 57 48 41 52 50 31 5 10 1 348 339 325 313 303 295 286 280 276 271 269 266 266 255 264 257 252 247 242 238 239 237 252 262 272 288 301 312 328 335 341 353 0
76 65 53 36 35 37 29 21 14 11 353 339 326 311 305 301 296 293 288 276 270 268 267 262 257 254 251 248 246 242 246 247 251 261 269 281 293 303 320 324 328 337 358
70 62 49 39 31 23 11 355 354 351 344 340 334 324 319 311 298 295 292 292 285 273 274 267 257 255 254 243 242 242 259 261 250 249 255 265 281 289 306 302 311 314 23
73 63 55 46 37 31 21 15 9 4 356 344 331 323 321 317 314 321 332 323 303 291 284 279 280 279 255 257 260 261 265 242 253 256 260 267 253 250 268 252 266 188 151
67 53 35 27 26 23 22 15 6 356 354 349 344 316 304 304 304 309 322 337 332 319 309 298 287 277 273 268 261 263 261 252 257 266 267 257 251 237 246 252 225 222 273
53 29 24 19 10 3 359 358 347 350 348 346 339 322 295 303 294 300 311 322 322 320 318 311 305 298 286 276 271 264 265 266 268 269 258 239 237 239 238 250 232 224 289
36 18 16 20 7 2 354 343 342 345 344 345 328 316 296 281 287 289 295 310 312 315 310 303 298 287 288 283 274 267 266 264 261 257 250 232 228 231 236 215 218 221 228
6 356 354 352 349 346 338 333 336 342 340 344 324 303 300 290 288 290 299 299 306 303 311 307 300 290 278 275 283 279 264 259 255 247 238 225 220 218 213 218 205 200 249
334 324 332 334 332 327 326 326 332 338 333 328 328 309 294 291 293 294 294 293 298 308 308 304 293 278 275 275 278 283 273 256 243 238 232 217 214 197 190 206 217 233 305
327 309 315 318 326 328 333 338 339 340 338 329 320 313 303 291 282 281 284 292 299 299 306 302 294 279 266 268 274 268 259 247 220 208 194 191 183 177 183 199 220 222 300
312 304 315 325 328 333 338 338 337 339 339 336 330 317 308 301 293 284 282 295 298 300 304 294 294 287 277 268 255 255 211 197 195 194 191 185 173 178 181 235 223 243 265
315 328 329 332 336 339 337 338 339 337 336 331 325 325 321 300 293 291 289 300 300 293 298 288 290 285 279 259 246 231 205 178 167 169 165 167 176 188 207 203 241 255 257
328 329 332 335 337 340 346 342 339 343 345 344 336 331 323 311 303 284 280 289 302 296 291 283 282 283 277 258 252 240 210 180 151 161 171 178 186 199 213 218 241 245 253
329 333 336 340 354 353 348 344 346 347 349 347 343 333 326 325 315 303 290 273 284 289 301 302 286 284 284 262 249 241 208 157 154 165 177 185 193 202 221 226 238 248 252
343 341 348 359 354 351 352 349 345 347 353 356 353 357 0 358 348 334 317 290 268 340 343 324 315 279 283 271 237 180 186 181 171 140 163 189 203 218 231 240 245 239 244
Wind_Speed_850mb
21 17 19 19 18 20 21 21 19 18 19 21 21 19 16 17 20 21 24 24 23 22 22 21 21 19 19 19 19 19 18 19 18 18 19 18 18 19 17 17 16 16 16
19 18 16 17 16 15 14 14 14 12 10 8 9 13 16 16 18 23 25 26 26 26 25 24 23 20 19 18 18 19 23 22 21 19 19 18 14 13 13 12 12 13 14
17 15 15 13 12 11 10 10 10 10 8 6 5 9 16 20 22 25 27 27 26 24 22 21 19 16 16 15 18 22 21 21 20 17 13 11 10 7 7 8 7 3 1
16 14 12 10 8 7 6 6 6 5 5 5 8 11 14 20 24 26 26 25 25 25 23 21 18 14 13 12 15 16 17 17 16 15 15 15 12 8 8 9 9 6 4
15 11 10 8 7 5 4 5 4 4 3 4 6 9 13 17 21 23 23 23 25 24 22 20 19 17 15 15 15 16 14 12 11 13 14 13 14 13 14 13 11 9 6
11 11 9 8 6 5 5 4 3 4 4 4 5 8 11 14 19 19 18 19 19 19 17 14 14 13 12 13 13 10 7 6 6 8 11 10 11 13 16 18 16 12 9
13 14 11 10 9 8 8 7 6 5 5 5 6 9 11 13 15 16 14 14 13 11 9 9 8 7 6 4 4 4 3 0 3 6 9 10 14 16 20 21 18 14 12
18 17 14 12 10 8 9 7 7 7 6 6 7 9 12 13 14 14 14 13 13 12 12 10 9 8 8 9 7 7 5 3 6 7 10 13 15 17 22 24 20 15 14
22 18 16 13 11 10 9 7 6 4 5 5 6 9 13 15 16 16 16 17 17 18 18 15 10 9 10 11 11 10 10 9 8 12 15 16 18 20 24 26 21 16 15
18 18 16 14 13 11 9 7 7 5 3 3 6 7 10 15 17 19 21 22 21 20 19 18 15 15 17 16 17 14 14 13 12 15 18 17 19 21 23 24 21 15 11
21 16 12 12 11 11 9 8 10 9 10 10 11 12 14 18 20 23 25 26 26 26 28 23 21 21 21 21 23 22 19 16 13 17 18 20 22 21 23 20 16 11 7
21 19 17 15 15 11 12 11 12 11 13 15 16 18 21 23 25 28 30 33 35 34 33 30 32 28 25 27 29 25 24 22 19 20 17 18 20 20 19 17 14 10 9
23 17 20 20 21 17 19 18 19 19 17 16 20 24 27 28 28 30 32 34 37 35 37 39 43 38 29 35 36 32 25 24 22 23 21 18 18 17 15 15 12 9 9
23 26 25 25 23 23 25 26 28 31 33 33 32 31 28 26 30 33 33 33 33 36 37 41 45 44 41 41 40 38 32 33 27 25 23 17 17 14 12 11 10 6 5
29 28 29 28 33 35 28 27 31 40 43 42 38 33 27 21 22 23 25 26 26 29 33 37 35 28 29 36 42 48 41 37 28 26 25 28 23 14 14 8 9 8 2
32 31 30 30 29 34 35 34 35 43 49 50 45 32 30 25 23 22 19 20 23 24 26 29 34 40 40 41 39 42 44 43 44 42 38 33 30 21 15 10 17 10 3
26 32 32 30 29 38 36 32 35 49 56 62 55 32 26 25 27 19 18 20 25 29 30 34 36 34 33 35 43 47 50 50 49 43 36 32 28 23 17 15 16 7 4
15 16 20 24 29 32 32 34 40 50 54 58 44 28 24 26 28 27 24 31 36 38 41 40 38 38 30 32 34 38 43 46 43 38 36 39 31 24 16 16 13 8 4
14 20 24 24 29 28 25 31 42 47 49 45 35 31 27 25 24 29 33 39 41 48 39 32 29 31 31 23 22 25 30 36 39 36 30 32 28 25 22 12 11 9 7
19 20 24 28 33 35 33 38 43 44 45 35 34 32 36 36 37 38 38 41 42 35 32 33 31 28 27 27 25 24 25 29 33 31 32 31 31 26 18 16 8 5 4
20 24 25 26 32 36 46 50 49 50 49 39 34 34 35 38 40 40 37 36 33 29 28 29 27 29 29 27 25 26 17 18 20 22 30 34 34 25 20 10 10 7 2
14 19 21 28 35 44 48 49 50 49 48 44 37 30 27 27 28 30 30 32 27 25 26 25 25 26 29 23 23 16 11 8 18 26 34 38 32 25 14 11 13 8 8
17 21 28 34 44 51 55 48 46 47 45 44 41 37 32 30 31 28 30 33 32 33 34 29 26 25 24 21 22 17 11 9 27 27 35 37 26 22 22 14 12 12 12
21 25 33 44 53 51 43 47 49 46 46 45 43 41 36 31 31 34 32 29 33 28 26 22 22 20 19 18 20 24 18 18 12 21 32 29 28 31 26 18 18 18 18
20 29 41 49 37 38 47 45 40 39 40 41 37 36 32 27 25 28 28 25 28 16 11 12 15 15 14 13 17 18 30 19 22 32 33 29 30 27 22 21 21 21 20
26 39 42 32 33 40 47 42 37 37 41 44 40 38 33 27 27 23 16 13 7 6 11 13 15 12 9 8 12 9 9 13 18 19 18 28 25 22 23 22 21 20 17
Wind_Direction_850mb
105 98 111 119 112 106 101 97 94 96 105 115 123 129 138 144 145 142 138 138 137 131 124 118 118 123 120 110 100 95 90 101 101 98 89 84 77 66 70 73 80 90 96
112 107 103 116 115 113 106 104 106 104 103 95 105 124 141 147 145 143 140 134 128 122 119 116 117 124 120 108 97 103 100 90 88 90 85 75 68 58 72 67 70 87 92
112 104 101 104 108 109 102 101 110 114 106 113 123 134 141 147 151 148 142 136 127 120 116 115 119 128 126 119 103 104 98 86 86 76 48 38 41 60 51 79 69 68 57
112 101 97 97 102 96 89 72 66 71 61 115 137 149 149 150 154 151 145 137 127 115 110 110 115 135 138 128 119 118 109 103 90 67 52 46 50 43 27 5 348 334 300
109 105 99 92 89 87 71 53 40 22 43 104 142 153 157 156 157 155 147 138 127 117 111 110 110 118 132 135 131 131 123 110 85 66 53 60 54 46 21 12 5 339 304
95 93 90 85 85 76 63 64 58 48 77 106 143 157 163 163 161 157 151 145 138 131 119 113 108 115 125 134 135 139 144 129 78 40 34 37 33 18 4 356 345 331 299
93 84 80 74 67 62 50 37 53 72 94 117 147 163 165 169 170 166 164 159 155 157 149 119 108 117 129 147 166 183 180 147 16 9 5 357 350 353 351 350 340 324 297
101 93 85 74 70 39 26 48 69 83 90 122 147 164 177 181 179 179 183 191 203 214 219 206 182 183 194 211 226 247 255 308 350 340 332 330 332 337 344 344 336 316 293
91 80 76 72 58 48 47 48 69 99 126 151 162 183 194 200 198 201 205 214 222 227 234 234 229 216 212 220 225 238 265 276 333 333 320 320 321 330 339 341 333 319 298
78 81 76 75 75 54 28 20 356 10 346 236 208 211 222 233 231 230 228 230 237 243 249 241 246 241 224 212 230 240 248 253 307 316 313 307 310 324 337 339 330 334 327
65 61 58 60 54 50 31 30 23 16 2 337 318 305 285 274 267 265 262 262 265 263 261 249 259 259 256 241 231 233 242 237 276 287 295 299 308 319 330 339 334 341 7
61 57 48 41 52 50 31 5 10 1 348 339 325 313 303 295 286 280 276 271 269 266 266 255 264 257 252 247 242 238 239 237 252 262 272 288 301 312 328 335 341 353 0
76 65 53 36 35 37 29 21 14 11 353 339 326 311 305 301 296 293 288 276 270 268 267 262 257 254 251 248 246 242 246 247 251 261 269 281 293 303 320 324 328 337 358
70 62 49 39 31 23 11 355 354 351 344 340 334 324 319 311 298 295 292 292 285 273 274 267 257 255 254 243 242 242 259 261 250 249 255 265 281 289 306 302 311 314 23
73 63 55 46 37 31 21 15 9 4 356 344 331 323 321 317 314 321 332 323 303 291 284 279 280 279 255 257 260 261 265 242 253 256 260 267 253 250 268 252 266 188 151
67 53 35 27 26 23 22 15 6 356 354 349 344 316 304 304 304 309 322 337 332 319 309 298 287 277 273 268 261 263 261 252 257 266 267 257 251 237 246 252 225 222 273
53 29 24 19 10 3 359 358 347 350 348 346 339 322 295 303 294 300 311 322 322 320 318 311 305 298 286 276 271 264 265 266 268 269 258 239 237 239 238 250 232 224 289
36 18 16 20 7 2 354 343 342 345 344 345 328 316 296 281 287 289 295 310 312 315 310 303 298 287 288 283 274 267 266 264 261 257 250 232 228 231 236 215 218 221 228
6 356 354 352 349 346 338 333 336 342 340 344 324 303 300 290 288 290 299 299 306 303 311 307 300 290 278 275 283 279 264 259 255 247 238 225 220 218 213 218 205 200 249
334 324 332 334 332 327 326 326 332 338 333 328 328 309 294 291 293 294 294 293 298 308 308 304 293 278 275 275 278 283 273 256 243 238 232 217 214 197 190 206 217 233 305
327 309 315 318 326 328 333 338 339 340 338 329 320 313 303 291 282 281 284 292 299 299 306 302 294 279 266 268 274 268 259 247 220 208 194 191 183 177 183 199 220 222 300
312 304 315 325 328 333 338 338 337 339 339 336 330 317 308 301 293 284 282 295 298 300 304 294 294 287 277 268 255 255 211 197 195 194 191 185 173 178 181 235 223 243 265
315 328 329 332 336 339 337 338 339 337 336 331 325 325 321 300 293 291 289 300 300 293 298 288 290 285 279 259 246 231 205 178 167 169 165 167 176 188 207 203 241 255 257
328 329 332 335 337 340 346 342 339 343 345 344 336 331 323 311 303 284 280 289 302 296 291 283 282 283 277 258 252 240 210 180 151 161 171 178 186 199 213 218 241 245 253
329 333 336 340 354 353 348 344 346 347 349 347 343 333 326 325 315 303 290 273 284 289 301 302 286 284 284 262 249 241 208 157 154 165 177 185 193 202 221 226 238 248 252
343 341 348 359 354 351 352 349 345 347 353 356 353 357 0 358 348 334 317 290 268 340 343 324 315 279 283 271 237 180 186 181 171 140 163 189 203 218 231 240 245 239 244